Tracking 19792 objects as of 15-Jul-2019
HD Live streaming from Space Station
objects crossing your sky now

NOAA 16 DEB

Track NOAA 16 DEB now!
10-day predictions


NORAD ID: 42420
Int'l Code: 2000-055TQ
Perigee: 813.2 km
Apogee: 855.7 km
Inclination: 99.0 °
Period: 101.4 minutes
Semi major axis: 7205 km
RCS: Unknown
Launch date: September 21, 2000
Source: United States (US)
Launch site: AIR FORCE WESTERN TEST RANGE (AFWTR)

Note: This is SATELLITE DEBRIS
aabbcc
Your satellite tracking list
Your tracking list is empty




NASA's NSSDC Master Catalog

Two Line Element Set (TLE):
1 42420U 00055TQ  19194.51656398 +.00001637 +00000-0 +79659-3 0  9995
2 42420 099.0328 301.8471 0029512 015.9762 344.2338 14.19420854173037
Source of the keplerian elements: AFSPC